Prescott, AZ

5:21 AM MST on February 23, 2017 (GMT -0700)
Love

Weather History for KPRC - May, 2013

Change the Weather History Date:

Friday, May 17, 2013

  Actual Average Record
Temperature  
Mean Temperature 65 °F 62 °F  
Max Temperature 76 °F 77 °F 90 °F (1997)
Min Temperature 53 °F 47 °F 33 °F (1981)
Degree Days  
Heating Degree Days 0    
Month to date heating degree days 77  
Since 1 July heating degree days 3893  
Cooling Degree Days 0    
Month to date cooling degree days 16  
Year to date cooling degree days 20  
Growing Degree Days 14 (Base 50)    
Moisture  
Dew Point 26 °F    
Average Humidity 24    
Maximum Humidity 41    
Minimum Humidity 13    
Precipitation  
Precipitation 0.00 in 0.02 in 0.17 in (1962)
Month to date precipitation 0.03 0.25  
Year to date precipitation 2.51 4.33  
Sea Level Pressure  
Sea Level Pressure 29.79 in    
Wind  
Wind Speed 10 mph (SSW)    
Max Wind Speed 30 mph    
Max Gust Speed 39 mph    
Visibility 10 miles    
Events      
T = Trace of Precipitation, MM = Missing Value Source: NWS Daily Summary

Daily Weather History Graph

Daily Weather History Graph

Search for Another Location

Airport or City:

Trip Planner

Search our weather history database for the weather conditions in past years. The results will help you decide how hot, cold, wet, or windy it might be!

Date:

Astronomy

May. 17, 2013 Rise Set
Actual Time 5:25 AM MST 7:27 PM MST
Civil Twilight 4:57 AM MST 7:55 PM MST
Nautical Twilight 4:22 AM MST 8:29 PM MST
Astronomical Twilight 3:46 AM MST 9:06 PM MST
Moon 11:54 AM MST (5/17) 12:28 AM MST (5/17)
Length of Visible Light 14h 58m
Length of Day
14h 02m
Waxing Crescent, 46% of the Moon is Illuminated
May 17
Waxing Crescent
May 17
First Quarter
May 24
Full
May 31
Last Quarter
Jun 8
New

Hourly Weather History & Observations

Time (MST) Temp. Dew Point Humidity Pressure Visibility Wind Dir Wind Speed Gust Speed Precip Events Conditions
12:53 AM 61.0 °F 26.1 °F 26% 29.75 in 10.0 mi SSW 5.8 mph - N/A   Clear
1:53 AM 63.0 °F 24.1 °F 23% 29.74 in 10.0 mi SSE 9.2 mph - N/A   Clear
2:53 AM 57.9 °F 26.1 °F 30% 29.75 in 10.0 mi South 5.8 mph - N/A   Clear
3:53 AM 55.0 °F 27.0 °F 34% 29.75 in 10.0 mi SSE 6.9 mph - N/A   Clear
4:53 AM 57.0 °F 30.0 °F 36% 29.75 in 10.0 mi Calm Calm - N/A   Clear
5:53 AM 54.0 °F 30.9 °F 41% 29.78 in 10.0 mi Calm Calm - N/A   Clear
6:53 AM 61.0 °F 34.0 °F 36% 29.78 in 10.0 mi South 8.1 mph - N/A   Clear
7:53 AM 64.9 °F 26.1 °F 23% 29.79 in 10.0 mi East 6.9 mph - N/A   Clear
8:53 AM 68.0 °F 24.1 °F 19% 29.80 in 10.0 mi SW 12.7 mph - N/A   Clear
9:53 AM 70.0 °F 25.0 °F 18% 29.82 in 10.0 mi SW 13.8 mph - N/A   Clear
10:53 AM 71.1 °F 24.1 °F 17% 29.82 in 10.0 mi SSW 16.1 mph 23.0 mph N/A   Clear
12:53 PM 73.0 °F 19.0 °F 13% 29.81 in 10.0 mi SSW 13.8 mph 21.9 mph N/A   Clear
1:53 PM 75.9 °F 21.0 °F 13% 29.79 in 10.0 mi WSW 21.9 mph 27.6 mph N/A   Clear
2:53 PM 73.0 °F 23.0 °F 15% 29.81 in 10.0 mi SW 19.6 mph 26.5 mph N/A   Scattered Clouds
3:53 PM 72.0 °F 23.0 °F 16% 29.81 in 10.0 mi SW 18.4 mph 29.9 mph N/A   Clear
4:53 PM 71.1 °F 26.1 °F 19% 29.81 in 10.0 mi SW 13.8 mph 28.8 mph N/A   Scattered Clouds
5:53 PM 71.1 °F 26.1 °F 19% 29.79 in 10.0 mi SW 17.3 mph 24.2 mph N/A   Scattered Clouds
6:53 PM 69.1 °F 26.1 °F 20% 29.79 in 10.0 mi SSW 10.4 mph - N/A   Clear
7:53 PM 66.9 °F 24.1 °F 20% 29.79 in 10.0 mi South 8.1 mph - N/A   Clear
8:53 PM 64.0 °F 24.1 °F 22% 29.81 in 10.0 mi South 6.9 mph - N/A   Clear
9:53 PM 60.1 °F 27.0 °F 28% 29.83 in 10.0 mi SSW 4.6 mph - N/A   Clear
10:53 PM 55.0 °F 30.0 °F 38% 29.84 in 10.0 mi South 5.8 mph - N/A   Clear
11:53 PM 54.0 °F 28.0 °F 37% 29.83 in 10.0 mi South 5.8 mph - N/A   Clear